Durango, CO

7:23 PM MDT on March 27, 2017 (GMT -0600)
Durango-La Plata County

Weather History for KDRO - February, 2014

Change the Weather History Date:

Thursday, February 13, 2014

  Actual Average Record
Temperature  
Mean Temperature 41 °F 28 °F  
Max Temperature 58 °F 42 °F 63 °F (1971)
Min Temperature 23 °F 14 °F -9 °F (2004)
Degree Days  
Heating Degree Days 24 37  
Month to date heating degree days 453 501  
Since 1 July heating degree days 4526 4655  
Cooling Degree Days 0 0  
Month to date cooling degree days 0 0  
Year to date cooling degree days 0 0  
Moisture  
Dew Point 23 °F    
Average Humidity 53    
Maximum Humidity 81    
Minimum Humidity 25    
Precipitation  
Precipitation 0.00 in 0.04 in 0.82 in (2003)
Month to date precipitation 0.26 0.53  
Year to date precipitation 0.39 1.65  
Sea Level Pressure  
Sea Level Pressure 30.10 in    
Wind  
Wind Speed 9 mph (WNW)    
Max Wind Speed 26 mph    
Max Gust Speed 33 mph    
Visibility 10 miles    
Events      
T = Trace of Precipitation, MM = Missing Value Source: NWS Daily Summary

Daily Weather History Graph

Daily Weather History Graph

Search for Another Location

Airport or City:

Trip Planner

Search our weather history database for the weather conditions in past years. The results will help you decide how hot, cold, wet, or windy it might be!

Date:

Astronomy

Feb. 13, 2014 Rise Set
Actual Time 7:01 AM MST 5:48 PM MST
Civil Twilight 6:35 AM MST 6:15 PM MST
Nautical Twilight 6:04 AM MST 6:46 PM MST
Astronomical Twilight 5:34 AM MST 7:16 PM MST
Moon 4:59 PM MST (2/13) 5:56 AM MST (2/13)
Length of Visible Light 11h 40m
Length of Day
10h 46m
Waxing Gibbous, 99% of the Moon is Illuminated
Feb 13
Waxing Gibbous
Feb 14
Full
Feb 22
Last Quarter
Mar 1
New
Mar 8
First Quarter

Hourly Weather History & Observations

Time (MST) Temp. Windchill Dew Point Humidity Pressure Visibility Wind Dir Wind Speed Gust Speed Precip Events Conditions
12:53 AM 27.0 °F 21.6 °F 21.9 °F 81% 30.15 in 10.0 mi East 4.6 mph - N/A   Clear
1:53 AM 28.0 °F 21.7 °F 21.0 °F 75% 30.12 in 10.0 mi East 5.8 mph - N/A   Clear
2:53 AM 27.0 °F 20.5 °F 21.0 °F 78% 30.13 in 10.0 mi ENE 5.8 mph - N/A   Clear
3:53 AM 26.1 °F 20.5 °F 19.9 °F 78% 30.13 in 10.0 mi ENE 4.6 mph - N/A   Clear
4:53 AM 26.1 °F 16.8 °F 21.0 °F 81% 30.13 in 10.0 mi NNE 9.2 mph - N/A   Clear
5:53 AM 24.1 °F - 19.9 °F 84% 30.20 in 10.0 mi Calm Calm - N/A   Clear
6:53 AM 25.0 °F 19.3 °F 19.9 °F 81% 30.22 in 10.0 mi NE 4.6 mph - N/A   Clear
7:53 AM 27.0 °F 19.5 °F 19.9 °F 75% 30.22 in 10.0 mi East 6.9 mph - N/A   Clear
8:53 AM 34.0 °F - 21.9 °F 61% 30.22 in 10.0 mi Calm Calm - N/A   Clear
9:53 AM 39.0 °F - 23.0 °F 53% 30.19 in 10.0 mi Calm Calm - N/A   Clear
10:53 AM 42.1 °F 38.4 °F 23.0 °F 47% 30.20 in 10.0 mi ESE 5.8 mph - N/A   Clear
11:53 AM 48.0 °F - 24.1 °F 39% 30.12 in 10.0 mi Variable 3.5 mph - N/A   Clear
12:53 PM 57.0 °F - 23.0 °F 27% 30.03 in 10.0 mi West 21.9 mph 31.1 mph N/A   Clear
1:53 PM 57.0 °F - 23.0 °F 27% 29.99 in 10.0 mi WSW 23.0 mph 31.1 mph N/A   Clear
2:53 PM 57.0 °F - 24.1 °F 28% 29.99 in 10.0 mi West 24.2 mph 32.2 mph N/A   Clear
3:53 PM 55.0 °F - 23.0 °F 29% 30.00 in 10.0 mi West 21.9 mph 33.4 mph N/A   Clear
4:53 PM 53.1 °F - 23.0 °F 31% 30.03 in 10.0 mi West 17.3 mph 27.6 mph N/A   Clear
5:53 PM 51.1 °F - 24.1 °F 35% 30.06 in 10.0 mi WNW 13.8 mph - N/A   Mostly Cloudy
6:53 PM 48.9 °F - 24.1 °F 38% 30.07 in 10.0 mi WSW 5.8 mph - N/A   Mostly Cloudy
7:53 PM 45.0 °F 41.2 °F 24.1 °F 44% 30.08 in 10.0 mi WSW 6.9 mph - N/A   Mostly Cloudy
8:53 PM 44.1 °F 41.5 °F 24.1 °F 45% 30.05 in 10.0 mi Variable 4.6 mph - N/A   Scattered Clouds
9:53 PM 45.0 °F 40.6 °F 25.0 °F 46% 30.04 in 10.0 mi WNW 8.1 mph - N/A   Clear
10:53 PM 44.1 °F 42.5 °F 25.0 °F 47% 30.03 in 10.0 mi Variable 3.5 mph - N/A   Partly Cloudy
11:53 PM 41.0 °F 35.8 °F 25.0 °F 53% 30.01 in 10.0 mi West 8.1 mph - N/A   Clear